Torna al catalogo

STARLINK-31133

AttivoComunicazioniVLEO
NORAD 58622·PAYLOAD·🇺🇸 United States

Lanciato Dec 23, 2023 da Cape Canaveral Space Force Station

Loading…

Prossimi Passaggi (prossime 24 ore)

TLE

AggiornatoSource: CelesTrak SupGP

Epoca: Sep 15, 2026, 01:48 UTC

1 58622C 23203E   26258.07548611  .00010940  00000+0  39618-3 0  2589
2 58622  43.0008  77.6383 0001497 271.9047 114.8361 15.27578906    10

Traccia STARLINK-31133 in tempo reale con AllMySat

Download on the App Store